Find Starlink 2510

NORAD ID: 48329 Int'l Des: 2021-036 Owner: SPXS Country: US Constellation: starlink operational
LEOCIRCULARSTARLINK_TYPE

Current View

Loading 3D Globe...

About Starlink 2510

Description loading...

Upcoming Passes

Passes for default location (London). Set your location on the main map for personalized predictions.

Altitude History

Loading altitude history...

Two-Line Element Set

1 48329U 21036BF 26150.02062819 .00002414 00000-0 89548-4 0 9999
2 48329 53.1623 82.6887 0001604 44.9460 315.1671 15.31697872280503
Epoch: May 30, 2026 • Age: 13 hours

Current Status

Altitude 476.5 km
Velocity 7.63 km/s
Sub-Earth Point 53.29°N, 83.08°E
Launch Date Apr 29, 2021
Age 5 years
Type internet

Technical Details

Classification Payload
Mass 260.00 kg
Dry Mass 248.00 kg
Total Mass 260.00 kg
Length 0.20 m
Diameter 2.80 m
Span 9.00 m
Shape Box + pan
Manufacturer SPXS
Bus Type Starlink
Phase Status In Orbit
Owner/State SPXS/US

Most Searched